CZ-2D R/B

Satellite information

Favourite Embed

Satellite Type and Status

ROCKET BODYIN ORBIT

Key statistics

Satellite CZ-2D R/B at a glance.

Uptime

1141

Days in orbit

Revolutions

≈ 14.3

Per day

Orbit

LEO

Low Earth Orbit

Inclination

59.9

Latest

Satellite identification and parameters

Extended collection of information and parameters for CZ-2D R/B.

Object identification

Identified? True

Debris? False

Object name: CZ-2D R/B

International designator: 2022-142B

Object number (NORAD): 54215

Object ID (CCSDS): 54215

Country: PEOPLES REPUBLIC OF CHINA (PRC)

Current information (Y/N): Y

RCS size: LARGE

Orbital parameters

Period: 100.398 minutes

Inclination: 59.899 deg

SMA: 7155.538 km

Apoapsis: 804.591 km

Periapsis: 750.215 km

RAAN: 158.5073 deg

Eccentricy: 0.00379953

Argument of periapsis: 104.9297 deg

Mean anomaly: 255.5951 deg

Mean motion: 14.34297723 rev/day

Mean motion (dot): 0.00000135 rev/day2

B* drag term: 0.000096457946 1/REarth

Two-line elements (TLE)

Creation date: Dec. 12, 2025, 3:16 a.m.

Reference frame: TEME

Reference center: EARTH

Epoch: Dec. 11, 2025, 7:29 p.m. UTC

TLE line 0: 0 CZ-2D R/B

TLE line 1: 1 54215U 22142B 25345.81245383 .00000135 00000-0 96458-4 0 9996

TLE line 2: 2 54215 59.8990 158.5073 0037995 104.9297 255.5951 14.34297723163467

Live tracking on map

Real-time ground track for satellite CZ-2D R/B.

In-orbit conjunctions

A list of the most updated potential collisions computed for object CZ-2D R/B.

Target Orbit TCA Probability of collision Miss distance Type
FENGYUN 1C DEB SSO 2025-10-24 23:45:31 0.0001261843 252.0 (m) DEBRIS
IRIDIUM 33 DEB LEO 2025-05-31 11:47:37 0.0001332493 58.0 (m) DEBRIS
NOAA 16 DEB SSO 2025-05-29 04:17:57 0.000100621 263.0 (m) DEBRIS
DMSP 5D-2 F13 DEB SSO 2025-03-27 03:56:32 0.0001442656 333.0 (m) DEBRIS
DELTA 1 DEB SSO 2024-12-08 13:54:20 0.0002472002 329.0 (m) DEBRIS

Associated space launch

Chinese classified satellite of unknown purposes.

CZ-2D R/B was lifted into orbit during the mission ‘Long March 2D | Shiyan 20C’, on board a Long March 4C space rocket.

The launch took place on Oct. 29, 2022, 1:01 a.m. from Launch Area 94 (SLS-2 / 603).

For more information about the launch, click the button.

Launch to space Long March 2D | Shiyan 20C
Long March 2D | Shiyan 20C

Agency: N/A

Status: Launch Successful

Launch date: Oct. 29, 2022, 1:01 a.m. UTC

Rocket: Long March 4C

Launch pad: Launch Area 94 (SLS-2 / 603)

Location: Jiuquan Satellite Launch Center, People's Republic of China

...

Latest news about this satellite

There are no fresh news available about this satellite. Check back as we update our databases every day.


Newsletter sign-up

Weekly statistics, charts and insights to help you stay on top of the space industry.